Weather Roundup
Issued by NWS Chicago, IL

Home | Current Version | Previous Version | Graphics & Text | Print | Product List | Glossary On
Versions: 1 2 3 4 5 6 7 8 9 10 11 12 13 14 15 16 17 18 19 20 21 22 23 24 25 26 27 28 29 30 31 32 33 34 35 36 37 38 39 40 41 42 43 44 45 46 47 48 49 50
000
NZUS59 KLOT 051402
HRRLOT

CHICAGO AREA WEATHER ROUNDUP
NATIONAL WEATHER SERVICE CHICAGO/ROMEOVILLE IL
900 AM CDT TUE MAY 05 2015

NOTE: "FAIR" INDICATES FEW OR NO CLOUDS BELOW 12,000 FEET WITH NO
SIGNIFICANT WEATHER AND/OR OBSTRUCTIONS TO VISIBILITY.

* THESE STATIONS ARE NOT UNDER NWS QUALITY CONTROL. THEY ALSO MAY NOT
  REPORT WEATHER SUCH AS PRECIPITATION OR FOG.

ILZ005-006-012>014-019>023-051500-
NORTHEAST ILLINOIS

CITY           SKY/WX    TMP DP  RH WIND       PRES   REMARKS
OHARE          CLOUDY    51  50  96 NE8       30.21R
MIDWAY         LGT RAIN  52  50  93 E12       30.21R FOG
AURORA         CLOUDY    56  52  86 E9        30.20R FOG
WAUKEGAN       LGT RAIN  47  46  97 NE9       30.23R
DUPAGE AIRPORT CLOUDY    55  53  93 E10       30.20R
WHEELING       LGT RAIN  50  48  93 E7        30.24R
NORTHERLY IS     N/A     47  45  93 S1          N/A
$$

WIZ051-052-058>065-066-070>072-051500-
SOUTHEAST WISCONSIN

CITY           SKY/WX    TMP DP  RH WIND       PRES   REMARKS
MILWAUKEE      LGT RAIN  46  42  86 NE14      30.26R FOG
KENOSHA*       LGT RAIN  48  45  89 NE10      30.25R
RACINE*        LGT RAIN  48  43  82 NE16G24   30.26R
WAUKESHA       LGT RAIN  46  45  93 E8        30.25S
$$

INZ001>003-010>013-019-020-051500-
NORTHWEST INDIANA

CITY           SKY/WX    TMP DP  RH WIND       PRES   REMARKS
GARY*          CLOUDY    50 N/A N/A NE6       30.21S FOG
MICHIGAN CITY* NOT AVBL
RENSSELAER*    NOT AVBL
$$

LMZ740>746-051500-
SOUTHERN LAKE MICHIGAN

STATION/POSITION TIME  SKY/WX   TEMP WIND        PRES    VSBY
                                AIR  DIR/SP/G
                 (UTC)          (F)  (DEG/KT/KT) (MB)    (MI)
HARRISON CRIB    1300            46   40/ 18/ 21   N/A
BURNHAM HARBOR   1400            47   60/  5/ 11   N/A
CALUMET HARBOR   1300            46   10/  6/  9   N/A
BURNS HARBOR     1300            49   70/ 12/ 14 1022.7F
MICHIGAN CITY    1300            48   10/ 10/ 11   N/A
$$

ABBREVIATIONS USED IN REMARKS
   TC - TEMPERATURE IN CELSIUS
  WCI - WIND CHILL INDEX
   HX - HEAT INDEX
  VSB - VISIBILITY
$$



USA.gov is the U.S. government's official web portal to all federal, state and local government web resources and services.